Time,TemperatureF,DewpointF,PressureIn,WindDirection,WindDirectionDegrees,WindSpeedMPH,WindSpeedGustMPH,Humidity,HourlyPrecipIn,Conditions,Clouds,dailyrainin,SoftwareType,DateUTC
2013-04-24 00:01:00,57.1,45.4,29.84,South,180,0.0,-999.0,65,0.00,,,0.00,Wunderground v.1.15,2013-04-24 04:01:00,
2013-04-24 00:03:00,57.1,45.4,29.84,South,179,0.0,-999.0,65,0.00,,,0.00,Wunderground v.1.15,2013-04-24 04:03:00,
2013-04-24 00:04:00,57.1,45.4,29.84,South,179,0.0,-999.0,65,0.00,,,0.00,Wunderground v.1.15,2013-04-24 04:04:00,
2013-04-24 00:08:00,57.2,46.3,29.84,South,180,0.0,-999.0,67,0.00,,,0.00,Wunderground v.1.15,2013-04-24 04:08:00,
2013-04-24 00:14:00,57.2,47.1,29.84,South,179,0.0,-999.0,69,0.00,,,0.00,Wunderground v.1.15,2013-04-24 04:14:00,
2013-04-24 00:20:00,57.0,46.1,29.83,South,180,0.0,-999.0,67,0.00,,,0.00,Wunderground v.1.15,2013-04-24 04:20:00,
2013-04-24 00:25:00,57.1,46.6,29.83,South,180,0.0,-999.0,68,0.00,,,0.00,Wunderground v.1.15,2013-04-24 04:25:00,
2013-04-24 00:31:00,57.0,47.3,29.83,South,180,0.0,-999.0,70,0.00,,,0.00,Wunderground v.1.15,2013-04-24 04:31:00,
2013-04-24 00:36:00,56.9,46.8,29.83,South,180,0.0,-999.0,69,0.00,,,0.00,Wunderground v.1.15,2013-04-24 04:36:00,
2013-04-24 00:42:00,56.7,47.0,29.83,South,179,0.0,-999.0,70,0.00,,,0.00,Wunderground v.1.15,2013-04-24 04:42:00,
2013-04-24 00:48:00,56.4,47.1,29.83,South,179,0.0,-999.0,71,0.00,,,0.00,Wunderground v.1.15,2013-04-24 04:48:00,
2013-04-24 00:54:00,56.2,46.9,29.82,South,180,0.0,-999.0,71,0.00,,,0.00,Wunderground v.1.15,2013-04-24 04:54:00,
2013-04-24 01:00:00,55.9,46.3,29.82,South,180,0.0,-999.0,70,0.00,,,0.00,Wunderground v.1.15,2013-04-24 05:00:00,
2013-04-24 01:05:00,55.6,46.3,29.82,South,180,0.0,-999.0,71,0.00,,,0.00,Wunderground v.1.15,2013-04-24 05:05:00,
2013-04-24 01:11:00,55.4,46.2,29.81,South,179,0.0,-999.0,71,0.00,,,0.00,Wunderground v.1.15,2013-04-24 05:11:00,
2013-04-24 01:17:00,55.3,46.1,29.82,South,180,0.0,-999.0,71,0.00,,,0.00,Wunderground v.1.15,2013-04-24 05:17:00,
2013-04-24 01:23:00,55.2,46.0,29.81,South,179,0.0,-999.0,71,0.00,,,0.00,Wunderground v.1.15,2013-04-24 05:23:00,
2013-04-24 01:29:00,55.2,45.6,29.81,South,180,0.0,-999.0,70,0.00,,,0.00,Wunderground v.1.15,2013-04-24 05:29:00,
2013-04-24 01:35:00,55.2,46.0,29.81,South,179,0.0,-999.0,71,0.00,,,0.00,Wunderground v.1.15,2013-04-24 05:35:00,
2013-04-24 01:41:00,55.3,46.1,29.81,South,179,0.0,-999.0,71,0.00,,,0.00,Wunderground v.1.15,2013-04-24 05:41:00,
2013-04-24 01:47:00,55.2,46.0,29.81,South,180,0.0,-999.0,71,0.00,,,0.00,Wunderground v.1.15,2013-04-24 05:47:00,
2013-04-24 01:53:00,55.1,45.9,29.80,South,180,0.0,-999.0,71,0.00,,,0.00,Wunderground v.1.15,2013-04-24 05:53:00,
2013-04-24 01:59:00,55.1,45.9,29.81,South,179,0.0,-999.0,71,0.00,,,0.00,Wunderground v.1.15,2013-04-24 05:59:00,
2013-04-24 02:04:00,55.1,46.2,29.81,South,179,0.0,-999.0,72,0.00,,,0.00,Wunderground v.1.15,2013-04-24 06:04:00,
2013-04-24 02:10:00,55.2,47.4,29.81,South,179,0.0,-999.0,75,0.00,,,0.00,Wunderground v.1.15,2013-04-24 06:10:00,
2013-04-24 02:16:00,55.2,47.8,29.81,South,180,0.0,-999.0,76,0.00,,,0.00,Wunderground v.1.15,2013-04-24 06:16:00,
2013-04-24 02:22:00,55.2,47.8,29.81,South,179,0.0,-999.0,76,0.00,,,0.00,Wunderground v.1.15,2013-04-24 06:22:00,
2013-04-24 02:28:00,55.1,47.7,29.81,South,180,0.0,-999.0,76,0.00,,,0.00,Wunderground v.1.15,2013-04-24 06:28:00,
2013-04-24 02:34:00,55.1,47.3,29.81,South,180,0.0,-999.0,75,0.00,,,0.00,Wunderground v.1.15,2013-04-24 06:34:00,
2013-04-24 02:40:00,55.2,47.8,29.80,South,179,0.0,-999.0,76,0.00,,,0.00,Wunderground v.1.15,2013-04-24 06:40:00,
2013-04-24 02:45:00,55.3,46.8,29.79,South,180,0.0,-999.0,73,0.00,,,0.00,Wunderground v.1.15,2013-04-24 06:45:00,
2013-04-24 02:51:00,55.8,46.5,29.79,South,179,0.0,-999.0,71,0.00,,,0.00,Wunderground v.1.15,2013-04-24 06:51:00,
2013-04-24 02:57:00,56.5,48.7,29.79,South,180,0.0,-999.0,75,0.00,,,0.00,Wunderground v.1.15,2013-04-24 06:57:00,
2013-04-24 03:03:00,56.7,48.5,29.79,South,179,0.0,-999.0,74,0.00,,,0.00,Wunderground v.1.15,2013-04-24 07:03:00,
2013-04-24 03:09:00,56.7,48.5,29.79,South,179,0.0,-999.0,74,0.00,,,0.00,Wunderground v.1.15,2013-04-24 07:09:00,
2013-04-24 03:15:00,56.7,48.5,29.79,South,179,0.0,-999.0,74,0.00,,,0.00,Wunderground v.1.15,2013-04-24 07:15:00,
2013-04-24 03:21:00,56.8,48.6,29.79,South,180,0.0,-999.0,74,0.00,,,0.00,Wunderground v.1.15,2013-04-24 07:21:00,
2013-04-24 03:26:00,56.8,48.6,29.79,South,180,0.0,-999.0,74,0.00,,,0.00,Wunderground v.1.15,2013-04-24 07:26:00,
2013-04-24 03:32:00,56.8,49.0,29.79,South,179,0.0,-999.0,75,0.00,,,0.00,Wunderground v.1.15,2013-04-24 07:32:00,
2013-04-24 03:38:00,56.8,48.6,29.80,South,180,0.0,-999.0,74,0.00,,,0.00,Wunderground v.1.15,2013-04-24 07:38:00,
2013-04-24 03:44:00,56.8,49.3,29.80,South,179,0.0,-999.0,76,0.00,,,0.00,Wunderground v.1.15,2013-04-24 07:44:00,
2013-04-24 03:50:00,56.6,50.8,29.80,NE,52,1.0,-999.0,81,0.00,,,0.00,Wunderground v.1.15,2013-04-24 07:50:00,
2013-04-24 03:56:00,56.2,50.8,29.81,NE,51,1.0,-999.0,82,0.00,,,0.00,Wunderground v.1.15,2013-04-24 07:56:00,
2013-04-24 04:02:00,55.6,50.5,29.81,NE,43,1.0,-999.0,83,0.00,,,0.01,Wunderground v.1.15,2013-04-24 08:02:00,
2013-04-24 04:08:00,55.3,50.5,29.82,NE,43,1.0,-999.0,84,0.19,,,0.03,Wunderground v.1.15,2013-04-24 08:08:00,
2013-04-24 04:14:00,55.1,50.4,29.79,NE,43,0.0,-999.0,84,0.27,,,0.06,Wunderground v.1.15,2013-04-24 08:14:00,
2013-04-24 04:19:00,54.8,50.4,29.78,ENE,63,0.0,-999.0,85,0.32,,,0.08,Wunderground v.1.15,2013-04-24 08:19:00,
2013-04-24 04:25:00,54.6,50.5,29.79,ENE,63,0.0,-999.0,86,0.17,,,0.09,Wunderground v.1.15,2013-04-24 08:25:00,
2013-04-24 04:31:00,54.4,50.9,29.78,South,178,1.0,-999.0,88,0.11,,,0.10,Wunderground v.1.15,2013-04-24 08:31:00,
2013-04-24 04:37:00,54.1,50.6,29.79,South,178,1.0,-999.0,88,0.05,,,0.10,Wunderground v.1.15,2013-04-24 08:37:00,
2013-04-24 04:43:00,54.0,50.8,29.78,South,178,0.0,-999.0,89,0.00,,,0.10,Wunderground v.1.15,2013-04-24 08:43:00,
2013-04-24 04:49:00,53.9,50.7,29.77,South,178,0.0,-999.0,89,0.16,,,0.12,Wunderground v.1.15,2013-04-24 08:49:00,
2013-04-24 04:55:00,53.7,50.8,29.78,South,178,1.0,-999.0,90,0.10,,,0.13,Wunderground v.1.15,2013-04-24 08:55:00,
2013-04-24 05:00:00,53.7,50.8,29.78,South,178,2.0,-999.0,90,0.11,,,0.14,Wunderground v.1.15,2013-04-24 09:00:00,
2013-04-24 05:06:00,53.7,50.8,29.77,South,178,2.0,-999.0,90,0.07,,,0.15,Wunderground v.1.15,2013-04-24 09:06:00,
2013-04-24 05:12:00,53.7,50.8,29.77,South,178,1.0,-999.0,90,0.15,,,0.17,Wunderground v.1.15,2013-04-24 09:12:00,
2013-04-24 05:18:00,53.7,50.8,29.76,South,178,0.0,-999.0,90,0.13,,,0.18,Wunderground v.1.15,2013-04-24 09:18:00,
2013-04-24 05:24:00,53.7,50.8,29.76,South,178,0.0,-999.0,90,0.08,,,0.19,Wunderground v.1.15,2013-04-24 09:24:00,
2013-04-24 05:30:00,53.6,51.0,29.76,SSE,153,0.0,-999.0,91,0.07,,,0.19,Wunderground v.1.15,2013-04-24 09:30:00,
2013-04-24 05:36:00,53.6,51.0,29.76,SSE,153,1.0,-999.0,91,0.04,,,0.19,Wunderground v.1.15,2013-04-24 09:36:00,
2013-04-24 05:42:00,53.8,51.2,29.76,SSE,153,1.0,-999.0,91,0.13,,,0.20,Wunderground v.1.15,2013-04-24 09:42:00,
2013-04-24 05:48:00,53.8,51.2,29.76,SSE,153,0.0,-999.0,91,0.10,,,0.21,Wunderground v.1.15,2013-04-24 09:48:00,
2013-04-24 05:54:00,53.9,51.3,29.76,SSE,153,0.0,-999.0,91,0.05,,,0.21,Wunderground v.1.15,2013-04-24 09:54:00,
2013-04-24 06:00:00,53.9,51.3,29.76,SSE,153,0.0,-999.0,91,0.00,,,0.21,Wunderground v.1.15,2013-04-24 10:00:00,
2013-04-24 06:05:00,53.9,51.3,29.76,SSE,153,0.0,-999.0,91,0.00,,,0.21,Wunderground v.1.15,2013-04-24 10:05:00,
2013-04-24 06:11:00,53.8,51.2,29.76,SSE,153,0.0,-999.0,91,0.00,,,0.21,Wunderground v.1.15,2013-04-24 10:11:00,
2013-04-24 06:17:00,53.8,51.2,29.75,SSE,153,0.0,-999.0,91,0.00,,,0.21,Wunderground v.1.15,2013-04-24 10:17:00,
2013-04-24 06:23:00,53.8,51.2,29.76,SSE,153,0.0,-999.0,91,0.00,,,0.21,Wunderground v.1.15,2013-04-24 10:23:00,
2013-04-24 06:29:00,53.8,51.2,29.76,SSE,153,0.0,-999.0,91,0.00,,,0.21,Wunderground v.1.15,2013-04-24 10:29:00,
2013-04-24 06:35:00,53.9,51.3,29.76,SSE,153,0.0,-999.0,91,0.00,,,0.22,Wunderground v.1.15,2013-04-24 10:35:00,
2013-04-24 06:41:00,54.1,51.5,29.76,SSE,153,0.0,-999.0,91,0.00,,,0.22,Wunderground v.1.15,2013-04-24 10:41:00,
2013-04-24 06:47:00,54.1,51.5,29.75,SSE,153,0.0,-999.0,91,0.00,,,0.22,Wunderground v.1.15,2013-04-24 10:47:00,
2013-04-24 06:52:00,54.2,51.6,29.75,SSE,153,0.0,-999.0,91,0.00,,,0.22,Wunderground v.1.15,2013-04-24 10:52:00,
2013-04-24 06:58:00,54.3,51.7,29.75,SSE,153,0.0,-999.0,91,0.00,,,0.22,Wunderground v.1.15,2013-04-24 10:58:00,
2013-04-24 07:04:00,54.4,51.8,29.75,SSE,153,0.0,-999.0,91,0.00,,,0.22,Wunderground v.1.15,2013-04-24 11:04:00,
2013-04-24 07:10:00,54.5,51.9,29.75,SSE,153,0.0,-999.0,91,0.00,,,0.22,Wunderground v.1.15,2013-04-24 11:10:00,
2013-04-24 07:16:00,54.6,52.0,29.75,SSE,153,0.0,-999.0,91,0.00,,,0.22,Wunderground v.1.15,2013-04-24 11:16:00,
2013-04-24 07:22:00,54.7,52.4,29.75,SSE,153,0.0,-999.0,92,0.00,,,0.22,Wunderground v.1.15,2013-04-24 11:22:00,
2013-04-24 07:28:00,54.9,52.6,29.75,SSE,153,0.0,-999.0,92,0.00,,,0.22,Wunderground v.1.15,2013-04-24 11:28:00,
2013-04-24 07:33:00,55.0,52.7,29.75,SSE,153,0.0,-999.0,92,0.00,,,0.23,Wunderground v.1.15,2013-04-24 11:33:00,
2013-04-24 07:39:00,54.9,52.6,29.75,SSE,153,0.0,-999.0,92,0.12,,,0.24,Wunderground v.1.15,2013-04-24 11:39:00,
2013-04-24 07:45:00,54.7,52.1,29.75,SSW,209,1.0,-999.0,91,0.08,,,0.25,Wunderground v.1.15,2013-04-24 11:45:00,
2013-04-24 07:51:00,55.0,52.1,29.75,South,178,2.0,-999.0,90,0.09,,,0.26,Wunderground v.1.15,2013-04-24 11:51:00,
2013-04-24 07:57:00,55.2,52.0,29.75,South,185,3.0,-999.0,89,0.07,,,0.26,Wunderground v.1.15,2013-04-24 11:57:00,
2013-04-24 08:02:00,55.6,52.4,29.75,South,180,4.0,-999.0,89,0.04,,,0.26,Wunderground v.1.15,2013-04-24 12:02:00,
2013-04-24 08:08:00,55.9,52.4,29.75,South,171,4.0,-999.0,88,0.00,,,0.26,Wunderground v.1.15,2013-04-24 12:08:00,
2013-04-24 08:14:00,56.3,52.8,29.74,South,171,1.0,-999.0,88,0.00,,,0.26,Wunderground v.1.15,2013-04-24 12:14:00,
2013-04-24 08:20:00,56.4,52.9,29.74,SSE,161,1.0,-999.0,88,0.00,,,0.26,Wunderground v.1.15,2013-04-24 12:20:00,
2013-04-24 08:26:00,56.4,52.9,29.74,South,182,1.0,-999.0,88,0.00,,,0.26,Wunderground v.1.15,2013-04-24 12:26:00,
2013-04-24 08:32:00,56.4,52.9,29.74,South,170,1.0,-999.0,88,0.00,,,0.26,Wunderground v.1.15,2013-04-24 12:32:00,
2013-04-24 08:37:00,56.3,52.8,29.74,South,171,1.0,-999.0,88,0.00,,,0.27,Wunderground v.1.15,2013-04-24 12:37:00,
2013-04-24 08:43:00,56.3,52.8,29.74,South,186,1.0,-999.0,88,0.00,,,0.27,Wunderground v.1.15,2013-04-24 12:43:00,
2013-04-24 08:49:00,56.4,52.6,29.74,South,183,2.0,-999.0,87,0.00,,,0.27,Wunderground v.1.15,2013-04-24 12:49:00,
2013-04-24 08:55:00,56.6,53.1,29.73,South,182,2.0,-999.0,88,0.00,,,0.27,Wunderground v.1.15,2013-04-24 12:55:00,
2013-04-24 09:01:00,56.7,53.2,29.73,South,182,1.0,-999.0,88,0.00,,,0.27,Wunderground v.1.15,2013-04-24 13:01:00,
2013-04-24 09:07:00,57.0,53.5,29.73,South,182,1.0,-999.0,88,0.00,,,0.27,Wunderground v.1.15,2013-04-24 13:07:00,
2013-04-24 09:13:00,57.2,53.0,29.73,SSW,194,2.0,-999.0,86,0.00,,,0.27,Wunderground v.1.15,2013-04-24 13:13:00,
2013-04-24 09:19:00,57.6,53.1,29.72,South,184,2.0,-999.0,85,0.00,,,0.27,Wunderground v.1.15,2013-04-24 13:19:00,
2013-04-24 09:24:00,58.0,53.2,29.72,South,182,2.0,-999.0,84,0.00,,,0.27,Wunderground v.1.15,2013-04-24 13:24:00,
2013-04-24 09:30:00,58.3,52.8,29.72,SSW,192,3.0,-999.0,82,0.00,,,0.27,Wunderground v.1.15,2013-04-24 13:30:00,
2013-04-24 09:36:00,58.7,52.9,29.72,South,174,2.0,-999.0,81,0.00,,,0.27,Wunderground v.1.15,2013-04-24 13:36:00,
2013-04-24 09:42:00,59.1,53.3,29.71,South,188,3.0,-999.0,81,0.00,,,0.27,Wunderground v.1.15,2013-04-24 13:42:00,
2013-04-24 09:48:00,59.4,53.2,29.71,SSW,202,3.0,-999.0,80,0.00,,,0.27,Wunderground v.1.15,2013-04-24 13:48:00,
2013-04-24 09:54:00,59.7,52.8,29.71,South,190,4.0,-999.0,78,0.00,,,0.27,Wunderground v.1.15,2013-04-24 13:54:00,
2013-04-24 10:00:00,60.1,53.2,29.70,South,186,6.0,-999.0,78,0.00,,,0.27,Wunderground v.1.15,2013-04-24 14:00:00,
2013-04-24 10:06:00,60.3,52.7,29.71,SSW,210,5.0,-999.0,76,0.00,,,0.27,Wunderground v.1.15,2013-04-24 14:06:00,
2013-04-24 10:12:00,60.4,53.2,29.71,South,186,4.0,-999.0,77,0.00,,,0.27,Wunderground v.1.15,2013-04-24 14:12:00,
2013-04-24 10:17:00,60.3,52.7,29.72,SW,216,5.0,-999.0,76,0.00,,,0.27,Wunderground v.1.15,2013-04-24 14:17:00,
2013-04-24 10:23:00,60.0,53.1,29.72,SSW,211,6.0,-999.0,78,0.00,,,0.28,Wunderground v.1.15,2013-04-24 14:23:00,
2013-04-24 10:29:00,59.3,53.1,29.71,South,170,6.0,-999.0,80,0.38,,,0.30,Wunderground v.1.15,2013-04-24 14:29:00,
2013-04-24 10:35:00,58.7,53.5,29.70,SSW,203,5.0,-999.0,83,0.16,,,0.32,Wunderground v.1.15,2013-04-24 14:35:00,
2013-04-24 10:41:00,58.3,53.5,29.70,SW,229,5.0,-999.0,84,0.08,,,0.33,Wunderground v.1.15,2013-04-24 14:41:00,
2013-04-24 10:47:00,58.0,53.8,29.69,South,188,4.0,-999.0,86,0.13,,,0.34,Wunderground v.1.15,2013-04-24 14:47:00,
2013-04-24 10:53:00,57.9,54.1,29.69,SSW,197,2.0,-999.0,87,0.08,,,0.34,Wunderground v.1.15,2013-04-24 14:53:00,
2013-04-24 10:58:00,57.8,54.0,29.70,SSW,200,3.0,-999.0,87,0.04,,,0.34,Wunderground v.1.15,2013-04-24 14:58:00,
2013-04-24 11:04:00,57.9,54.4,29.71,SSW,200,5.0,-999.0,88,0.00,,,0.34,Wunderground v.1.15,2013-04-24 15:04:00,
2013-04-24 11:10:00,58.0,54.5,29.71,SSW,192,5.0,-999.0,88,0.00,,,0.34,Wunderground v.1.15,2013-04-24 15:10:00,
2013-04-24 11:16:00,58.1,54.2,29.71,SSW,196,6.0,-999.0,87,0.00,,,0.34,Wunderground v.1.15,2013-04-24 15:16:00,
2013-04-24 11:22:00,58.2,54.3,29.72,SSE,150,6.0,-999.0,87,0.00,,,0.34,Wunderground v.1.15,2013-04-24 15:22:00,
2013-04-24 11:28:00,58.2,54.3,29.70,South,190,7.0,-999.0,87,0.00,,,0.34,Wunderground v.1.15,2013-04-24 15:28:00,
2013-04-24 11:34:00,58.1,54.2,29.70,SSW,197,6.0,-999.0,87,0.21,,,0.36,Wunderground v.1.15,2013-04-24 15:34:00,
2013-04-24 11:40:00,57.9,54.4,29.69,SSW,203,6.0,-999.0,88,0.12,,,0.37,Wunderground v.1.15,2013-04-24 15:40:00,
2013-04-24 11:46:00,57.9,54.4,29.69,SSE,155,6.0,-999.0,88,0.06,,,0.37,Wunderground v.1.15,2013-04-24 15:46:00,
2013-04-24 11:52:00,57.9,54.4,29.69,SSW,198,7.0,-999.0,88,0.04,,,0.37,Wunderground v.1.15,2013-04-24 15:52:00,
2013-04-24 11:58:00,58.0,54.5,29.69,South,188,6.0,-999.0,88,0.04,,,0.38,Wunderground v.1.15,2013-04-24 15:58:00,
2013-04-24 12:03:00,57.8,54.3,29.70,SSW,208,6.0,-999.0,88,0.45,,,0.40,Wunderground v.1.15,2013-04-24 16:03:00,
2013-04-24 12:09:00,57.8,54.6,29.70,SSW,202,6.0,-999.0,89,0.19,,,0.41,Wunderground v.1.15,2013-04-24 16:09:00,
2013-04-24 12:15:00,57.7,54.8,29.69,SSW,200,5.0,-999.0,90,0.13,,,0.42,Wunderground v.1.15,2013-04-24 16:15:00,
2013-04-24 12:21:00,57.8,54.9,29.70,SW,215,7.0,-999.0,90,0.08,,,0.43,Wunderground v.1.15,2013-04-24 16:21:00,
2013-04-24 12:27:00,57.9,55.0,29.70,SSW,198,9.0,-999.0,90,0.13,,,0.44,Wunderground v.1.15,2013-04-24 16:27:00,
2013-04-24 12:33:00,57.9,55.0,29.70,South,175,8.0,-999.0,90,0.13,,,0.45,Wunderground v.1.15,2013-04-24 16:33:00,
2013-04-24 12:39:00,57.9,55.0,29.69,SW,230,7.0,-999.0,90,0.10,,,0.46,Wunderground v.1.15,2013-04-24 16:39:00,
2013-04-24 12:44:00,58.0,55.1,29.70,SW,234,8.0,-999.0,90,0.05,,,0.46,Wunderground v.1.15,2013-04-24 16:44:00,
2013-04-24 12:50:00,58.0,55.1,29.69,SW,221,8.0,-999.0,90,0.04,,,0.47,Wunderground v.1.15,2013-04-24 16:50:00,
2013-04-24 12:56:00,58.0,55.1,29.69,SW,232,7.0,-999.0,90,0.11,,,0.48,Wunderground v.1.15,2013-04-24 16:56:00,
2013-04-24 13:02:00,58.0,55.4,29.68,SSW,194,7.0,-999.0,91,0.19,,,0.50,Wunderground v.1.15,2013-04-24 17:02:00,
2013-04-24 13:08:00,57.9,55.3,29.68,South,180,6.0,-999.0,91,0.07,,,0.51,Wunderground v.1.15,2013-04-24 17:08:00,
2013-04-24 13:14:00,57.7,55.1,29.68,South,188,6.0,-999.0,91,0.16,,,0.52,Wunderground v.1.15,2013-04-24 17:14:00,
2013-04-24 13:20:00,57.5,54.9,29.69,SSW,206,8.0,-999.0,91,0.43,,,0.57,Wunderground v.1.15,2013-04-24 17:20:00,
2013-04-24 13:26:00,57.3,54.7,29.70,SSW,192,8.0,-999.0,91,0.17,,,0.59,Wunderground v.1.15,2013-04-24 17:26:00,
2013-04-24 13:31:00,57.1,54.5,29.70,WSW,239,7.0,-999.0,91,0.24,,,0.62,Wunderground v.1.15,2013-04-24 17:31:00,
2013-04-24 13:37:00,57.1,54.5,29.70,SSE,165,6.0,-999.0,91,0.12,,,0.63,Wunderground v.1.15,2013-04-24 17:37:00,
2013-04-24 13:43:00,57.2,54.6,29.69,WSW,238,8.0,-999.0,91,0.09,,,0.63,Wunderground v.1.15,2013-04-24 17:43:00,
2013-04-24 13:49:00,57.3,54.7,29.69,SW,218,9.0,-999.0,91,0.05,,,0.64,Wunderground v.1.15,2013-04-24 17:49:00,
2013-04-24 13:55:00,57.4,54.8,29.68,South,175,9.0,-999.0,91,0.05,,,0.64,Wunderground v.1.15,2013-04-24 17:55:00,
2013-04-24 14:01:00,57.5,54.9,29.68,SW,215,8.0,-999.0,91,0.05,,,0.64,Wunderground v.1.15,2013-04-24 18:01:00,
2013-04-24 14:07:00,57.6,54.7,29.66,SSW,195,8.0,-999.0,90,0.00,,,0.65,Wunderground v.1.15,2013-04-24 18:07:00,
2013-04-24 14:13:00,57.7,54.8,29.67,SSW,204,6.0,-999.0,90,0.09,,,0.66,Wunderground v.1.15,2013-04-24 18:13:00,
2013-04-24 14:18:00,57.8,54.9,29.68,SW,223,7.0,-999.0,90,0.09,,,0.66,Wunderground v.1.15,2013-04-24 18:18:00,
2013-04-24 14:24:00,57.9,55.3,29.67,South,191,8.0,-999.0,91,0.05,,,0.66,Wunderground v.1.15,2013-04-24 18:24:00,
2013-04-24 14:30:00,57.9,55.3,29.68,SSW,192,7.0,-999.0,91,0.05,,,0.67,Wunderground v.1.15,2013-04-24 18:30:00,
2013-04-24 14:36:00,58.1,55.5,29.68,SSW,209,7.0,-999.0,91,0.05,,,0.67,Wunderground v.1.15,2013-04-24 18:36:00,
2013-04-24 14:42:00,58.3,55.7,29.67,South,180,6.0,-999.0,91,0.05,,,0.68,Wunderground v.1.15,2013-04-24 18:42:00,
2013-04-24 14:48:00,58.2,55.6,29.66,SSW,209,6.0,-999.0,91,0.05,,,0.68,Wunderground v.1.15,2013-04-24 18:48:00,
2013-04-24 14:54:00,58.2,55.3,29.66,South,190,7.0,-999.0,90,0.00,,,0.68,Wunderground v.1.15,2013-04-24 18:54:00,
2013-04-24 15:00:00,58.2,55.3,29.67,SW,234,8.0,-999.0,90,0.00,,,0.68,Wunderground v.1.15,2013-04-24 19:00:00,
2013-04-24 15:05:00,58.4,55.5,29.67,SSW,195,8.0,-999.0,90,0.00,,,0.69,Wunderground v.1.15,2013-04-24 19:05:00,
2013-04-24 15:11:00,57.8,54.9,29.69,WNW,287,8.0,-999.0,90,0.21,,,0.71,Wunderground v.1.15,2013-04-24 19:11:00,
2013-04-24 15:17:00,49.4,44.1,29.72,North,351,11.0,-999.0,82,0.87,,,0.79,Wunderground v.1.15,2013-04-24 19:17:00,
2013-04-24 15:23:00,46.9,43.5,29.73,South,180,7.0,-999.0,88,0.31,,,0.83,Wunderground v.1.15,2013-04-24 19:23:00,
2013-04-24 15:29:00,45.6,42.5,29.74,NE,37,3.0,-999.0,89,0.34,,,0.86,Wunderground v.1.15,2013-04-24 19:29:00,
2013-04-24 15:35:00,44.9,42.1,29.75,NW,313,4.0,-999.0,90,0.08,,,0.86,Wunderground v.1.15,2013-04-24 19:35:00,
2013-04-24 15:41:00,44.6,42.1,29.75,NW,319,4.0,-999.0,91,0.04,,,0.86,Wunderground v.1.15,2013-04-24 19:41:00,
2013-04-24 15:47:00,44.8,42.3,29.75,North,9,3.0,-999.0,91,0.00,,,0.86,Wunderground v.1.15,2013-04-24 19:47:00,
2013-04-24 15:52:00,44.8,42.3,29.75,West,271,4.0,-999.0,91,0.00,,,0.86,Wunderground v.1.15,2013-04-24 19:52:00,
2013-04-24 15:57:00,44.6,42.1,29.76,NW,305,6.0,-999.0,91,0.00,,,0.86,Wunderground v.1.15,2013-04-24 19:57:00,
2013-04-24 16:03:00,44.6,42.1,29.77,North,360,4.0,-999.0,91,0.00,,,0.86,Wunderground v.1.15,2013-04-24 20:03:00,
2013-04-24 16:09:00,44.3,41.8,29.77,NNW,333,3.0,-999.0,91,0.00,,,0.86,Wunderground v.1.15,2013-04-24 20:09:00,
2013-04-24 16:15:00,44.2,41.7,29.78,NW,323,4.0,-999.0,91,0.00,,,0.86,Wunderground v.1.15,2013-04-24 20:15:00,
2013-04-24 16:21:00,44.3,41.8,29.78,NW,317,3.0,-999.0,91,0.00,,,0.86,Wunderground v.1.15,2013-04-24 20:21:00,
2013-04-24 16:27:00,44.1,41.6,29.79,West,277,2.0,-999.0,91,0.00,,,0.87,Wunderground v.1.15,2013-04-24 20:27:00,
2013-04-24 16:32:00,43.7,41.2,29.80,NW,309,3.0,-999.0,91,0.00,,,0.87,Wunderground v.1.15,2013-04-24 20:32:00,
2013-04-24 16:38:00,43.4,40.9,29.81,NNW,342,5.0,-999.0,91,0.00,,,0.87,Wunderground v.1.15,2013-04-24 20:38:00,
2013-04-24 16:44:00,43.7,41.2,29.81,WNW,298,4.0,-999.0,91,0.00,,,0.87,Wunderground v.1.15,2013-04-24 20:44:00,
2013-04-24 16:50:00,43.5,41.0,29.82,NW,319,4.0,-999.0,91,0.00,,,0.87,Wunderground v.1.15,2013-04-24 20:50:00,
2013-04-24 16:56:00,43.2,40.8,29.83,NW,315,3.0,-999.0,91,0.00,,,0.87,Wunderground v.1.15,2013-04-24 20:56:00,
2013-04-24 17:02:00,43.2,40.8,29.84,NNW,329,3.0,-999.0,91,0.00,,,0.87,Wunderground v.1.15,2013-04-24 21:02:00,
2013-04-24 17:08:00,43.1,40.7,29.84,WNW,298,4.0,-999.0,91,0.00,,,0.87,Wunderground v.1.15,2013-04-24 21:08:00,
2013-04-24 17:13:00,43.2,40.8,29.86,WSW,254,3.0,-999.0,91,0.00,,,0.87,Wunderground v.1.15,2013-04-24 21:13:00,
2013-04-24 17:19:00,42.8,40.4,29.85,NW,325,4.0,-999.0,91,0.00,,,0.88,Wunderground v.1.15,2013-04-24 21:19:00,
2013-04-24 17:25:00,42.6,39.9,29.86,WNW,286,5.0,-999.0,90,0.00,,,0.88,Wunderground v.1.15,2013-04-24 21:25:00,
2013-04-24 17:31:00,42.6,39.9,29.87,WNW,298,4.0,-999.0,90,0.00,,,0.88,Wunderground v.1.15,2013-04-24 21:31:00,
2013-04-24 17:37:00,42.5,39.8,29.87,WNW,292,4.0,-999.0,90,0.00,,,0.88,Wunderground v.1.15,2013-04-24 21:37:00,
2013-04-24 17:43:00,42.5,39.5,29.87,NW,319,5.0,-999.0,89,0.00,,,0.88,Wunderground v.1.15,2013-04-24 21:43:00,
2013-04-24 17:49:00,42.3,39.3,29.88,NNW,331,5.0,-999.0,89,0.00,,,0.88,Wunderground v.1.15,2013-04-24 21:49:00,
2013-04-24 17:54:00,42.1,38.8,29.89,WNW,298,6.0,-999.0,88,0.00,,,0.88,Wunderground v.1.15,2013-04-24 21:54:00,
2013-04-24 17:59:00,41.9,38.6,29.89,NW,321,6.0,-999.0,88,0.00,,,0.88,Wunderground v.1.15,2013-04-24 21:59:00,
2013-04-24 18:04:00,41.7,38.7,29.90,NW,320,4.0,-999.0,89,0.00,,,0.88,Wunderground v.1.15,2013-04-24 22:04:00,
2013-04-24 18:10:00,41.3,38.0,29.91,WNW,298,5.0,-999.0,88,0.00,,,0.88,Wunderground v.1.15,2013-04-24 22:10:00,
2013-04-24 18:16:00,41.1,37.5,29.92,NW,311,6.0,-999.0,87,0.00,,,0.88,Wunderground v.1.15,2013-04-24 22:16:00,
2013-04-24 18:22:00,41.1,37.5,29.92,WNW,296,4.0,-999.0,87,0.00,,,0.88,Wunderground v.1.15,2013-04-24 22:22:00,
2013-04-24 18:28:00,41.1,37.5,29.93,WNW,296,4.0,-999.0,87,0.00,,,0.88,Wunderground v.1.15,2013-04-24 22:28:00,
2013-04-24 18:33:00,41.2,37.6,29.94,WNW,294,4.0,-999.0,87,0.00,,,0.88,Wunderground v.1.15,2013-04-24 22:33:00,
2013-04-24 18:39:00,41.3,37.7,29.95,WNW,288,4.0,-999.0,87,0.00,,,0.88,Wunderground v.1.15,2013-04-24 22:39:00,
2013-04-24 18:45:00,41.3,37.1,29.95,WNW,298,5.0,-999.0,85,0.00,,,0.88,Wunderground v.1.15,2013-04-24 22:45:00,
2013-04-24 18:51:00,41.5,37.6,29.95,NW,309,4.0,-999.0,86,0.00,,,0.88,Wunderground v.1.15,2013-04-24 22:51:00,
2013-04-24 18:57:00,41.2,37.0,29.96,NW,304,3.0,-999.0,85,0.00,,,0.88,Wunderground v.1.15,2013-04-24 22:57:00,
2013-04-24 19:03:00,40.6,36.4,29.96,West,278,5.0,-999.0,85,0.00,,,0.88,Wunderground v.1.15,2013-04-24 23:03:00,
2013-04-24 19:08:00,40.4,36.5,29.97,WNW,285,4.0,-999.0,86,0.00,,,0.88,Wunderground v.1.15,2013-04-24 23:08:00,
2013-04-24 19:14:00,40.2,36.1,29.98,WNW,288,5.0,-999.0,85,0.00,,,0.88,Wunderground v.1.15,2013-04-24 23:14:00,
2013-04-24 19:20:00,40.1,36.0,29.98,West,268,6.0,-999.0,85,0.00,,,0.88,Wunderground v.1.15,2013-04-24 23:20:00,
2013-04-24 19:26:00,40.0,35.9,29.98,NW,314,6.0,-999.0,85,0.00,,,0.88,Wunderground v.1.15,2013-04-24 23:26:00,
2013-04-24 19:31:00,40.2,36.3,29.98,NW,313,3.0,-999.0,86,0.00,,,0.88,Wunderground v.1.15,2013-04-24 23:31:00,
2013-04-24 19:37:00,40.2,36.3,29.98,West,280,3.0,-999.0,86,0.00,,,0.88,Wunderground v.1.15,2013-04-24 23:37:00,
2013-04-24 19:43:00,40.2,36.3,29.99,WNW,286,2.0,-999.0,86,0.00,,,0.88,Wunderground v.1.15,2013-04-24 23:43:00,
2013-04-24 19:49:00,40.1,36.2,29.99,NW,304,3.0,-999.0,86,0.00,,,0.88,Wunderground v.1.15,2013-04-24 23:49:00,
2013-04-24 19:55:00,40.1,36.2,29.99,WNW,286,4.0,-999.0,86,0.00,,,0.88,Wunderground v.1.15,2013-04-24 23:55:00,
2013-04-24 20:01:00,40.0,36.2,30.00,West,267,4.0,-999.0,86,0.00,,,0.88,Wunderground v.1.15,2013-04-25 00:01:00,
2013-04-24 20:07:00,40.0,36.2,30.00,WNW,294,3.0,-999.0,86,0.00,,,0.88,Wunderground v.1.15,2013-04-25 00:07:00,
2013-04-24 20:13:00,39.9,36.1,30.00,WNW,290,3.0,-999.0,86,0.00,,,0.88,Wunderground v.1.15,2013-04-25 00:13:00,
2013-04-24 20:18:00,40.0,36.4,30.01,WNW,292,1.0,-999.0,87,0.00,,,0.88,Wunderground v.1.15,2013-04-25 00:18:00,
2013-04-24 20:24:00,40.1,36.5,30.02,WNW,294,1.0,-999.0,87,0.00,,,0.88,Wunderground v.1.15,2013-04-25 00:24:00,
2013-04-24 20:30:00,39.9,36.3,30.02,WNW,292,2.0,-999.0,87,0.00,,,0.88,Wunderground v.1.15,2013-04-25 00:30:00,
2013-04-24 20:36:00,39.9,36.6,30.03,WNW,288,2.0,-999.0,88,0.00,,,0.88,Wunderground v.1.15,2013-04-25 00:36:00,
2013-04-24 20:42:00,40.0,36.7,30.04,WNW,284,1.0,-999.0,88,0.00,,,0.88,Wunderground v.1.15,2013-04-25 00:42:00,
2013-04-24 20:48:00,40.0,36.4,30.04,WNW,289,3.0,-999.0,87,0.00,,,0.88,Wunderground v.1.15,2013-04-25 00:48:00,
2013-04-24 20:54:00,40.0,36.4,30.05,WNW,296,4.0,-999.0,87,0.00,,,0.88,Wunderground v.1.15,2013-04-25 00:54:00,
2013-04-24 21:00:00,40.0,36.4,30.05,West,263,3.0,-999.0,87,0.00,,,0.88,Wunderground v.1.15,2013-04-25 01:00:00,
2013-04-24 21:06:00,40.0,36.4,30.05,West,268,3.0,-999.0,87,0.00,,,0.88,Wunderground v.1.15,2013-04-25 01:06:00,
2013-04-24 21:12:00,39.9,36.3,30.06,West,281,2.0,-999.0,87,0.00,,,0.88,Wunderground v.1.15,2013-04-25 01:12:00,
2013-04-24 21:17:00,39.8,36.2,30.07,West,277,3.0,-999.0,87,0.00,,,0.88,Wunderground v.1.15,2013-04-25 01:17:00,
2013-04-24 21:23:00,39.7,36.1,30.07,WNW,286,3.0,-999.0,87,0.00,,,0.88,Wunderground v.1.15,2013-04-25 01:23:00,
2013-04-24 21:29:00,39.6,36.0,30.08,WNW,293,3.0,-999.0,87,0.00,,,0.88,Wunderground v.1.15,2013-04-25 01:29:00,
2013-04-24 21:34:00,39.3,35.5,30.08,West,279,3.0,-999.0,86,0.00,,,0.88,Wunderground v.1.15,2013-04-25 01:34:00,
2013-04-24 21:40:00,39.1,35.3,30.08,WNW,292,3.0,-999.0,86,0.00,,,0.88,Wunderground v.1.15,2013-04-25 01:40:00,
2013-04-24 21:45:00,38.9,35.1,30.09,West,281,2.0,-999.0,86,0.00,,,0.88,Wunderground v.1.15,2013-04-25 01:45:00,
2013-04-24 21:51:00,38.7,34.9,30.09,WNW,287,3.0,-999.0,86,0.00,,,0.88,Wunderground v.1.15,2013-04-25 01:51:00,
2013-04-24 21:57:00,38.8,35.0,30.09,West,275,3.0,-999.0,86,0.00,,,0.88,Wunderground v.1.15,2013-04-25 01:57:00,
2013-04-24 22:03:00,38.7,34.9,30.10,WNW,289,2.0,-999.0,86,0.00,,,0.88,Wunderground v.1.15,2013-04-25 02:03:00,
2013-04-24 22:08:00,38.7,34.9,30.10,WNW,288,1.0,-999.0,86,0.00,,,0.88,Wunderground v.1.15,2013-04-25 02:08:00,
2013-04-24 22:14:00,38.7,34.9,30.10,WNW,288,1.0,-999.0,86,0.00,,,0.88,Wunderground v.1.15,2013-04-25 02:14:00,
2013-04-24 22:20:00,38.6,34.8,30.11,WNW,288,0.0,-999.0,86,0.00,,,0.88,Wunderground v.1.15,2013-04-25 02:20:00,
2013-04-24 22:26:00,38.4,34.6,30.11,WNW,288,0.0,-999.0,86,0.00,,,0.88,Wunderground v.1.15,2013-04-25 02:26:00,
2013-04-24 22:32:00,38.3,34.5,30.11,WNW,288,0.0,-999.0,86,0.00,,,0.88,Wunderground v.1.15,2013-04-25 02:32:00,
2013-04-24 22:38:00,38.1,34.3,30.11,WNW,288,0.0,-999.0,86,0.00,,,0.88,Wunderground v.1.15,2013-04-25 02:38:00,
2013-04-24 22:44:00,37.9,34.1,30.11,WNW,288,0.0,-999.0,86,0.00,,,0.88,Wunderground v.1.15,2013-04-25 02:44:00,
2013-04-24 22:50:00,37.6,33.8,30.11,WNW,288,0.0,-999.0,86,0.00,,,0.88,Wunderground v.1.15,2013-04-25 02:50:00,
2013-04-24 22:55:00,37.3,33.5,30.11,WNW,288,0.0,-999.0,86,0.00,,,0.88,Wunderground v.1.15,2013-04-25 02:55:00,
2013-04-24 23:01:00,37.1,33.3,30.11,WNW,288,0.0,-999.0,86,0.00,,,0.88,Wunderground v.1.15,2013-04-25 03:01:00,
2013-04-24 23:07:00,36.8,33.3,30.12,WNW,288,0.0,-999.0,87,0.00,,,0.88,Wunderground v.1.15,2013-04-25 03:07:00,
2013-04-24 23:13:00,36.5,33.0,30.12,WNW,288,0.0,-999.0,87,0.00,,,0.88,Wunderground v.1.15,2013-04-25 03:13:00,
2013-04-24 23:19:00,36.2,32.7,30.12,WNW,288,0.0,-999.0,87,0.00,,,0.88,Wunderground v.1.15,2013-04-25 03:19:00,
2013-04-24 23:25:00,36.0,32.8,30.12,WNW,288,0.0,-999.0,88,0.00,,,0.88,Wunderground v.1.15,2013-04-25 03:25:00,
2013-04-24 23:31:00,35.7,32.5,30.12,WNW,288,0.0,-999.0,88,0.00,,,0.88,Wunderground v.1.15,2013-04-25 03:31:00,
2013-04-24 23:37:00,35.5,32.6,30.12,WNW,288,0.0,-999.0,89,0.00,,,0.88,Wunderground v.1.15,2013-04-25 03:37:00,
2013-04-24 23:42:00,35.4,32.5,30.12,WNW,288,0.0,-999.0,89,0.00,,,0.88,Wunderground v.1.15,2013-04-25 03:42:00,
2013-04-24 23:48:00,35.3,32.7,30.12,WNW,288,0.0,-999.0,90,0.00,,,0.88,Wunderground v.1.15,2013-04-25 03:48:00,
2013-04-24 23:54:00,35.4,32.8,30.13,WNW,288,0.0,-999.0,90,0.00,,,0.88,Wunderground v.1.15,2013-04-25 03:54:00,